Weather History for Monroe, MI

Change the Weather History Date:

Monday, January 20, 2014

  Actual Average Record
Temperature  
Mean Temperature 22 °F -  
Max Temperature 33 °F 31 °F 58 °F (1951)
Min Temperature 12 °F 16 °F -11 °F (1940)
Degree Days  
Heating Degree Days 42    
Moisture  
Dew Point 20 °F    
Average Humidity 78    
Maximum Humidity 93    
Minimum Humidity 64    
Precipitation  
Precipitation 0.00 in - - ()
Sea Level Pressure  
Sea Level Pressure 29.78 in    
Wind  
Wind Speed 9 mph (NW)    
Max Wind Speed 17 mph    
Max Gust Speed 23 mph    
Visibility 8 miles    
Events Snow    
Averages and records for this station are not official NWS values.
T = Trace of Precipitation, MM = Missing Value Source: NWS Daily Summary

Daily Weather History Graph

Daily Weather History Graph

Search for Another Location

Airport:

Trip Planner

Search our weather history database for the weather conditions in past years. The results will help you decide how hot, cold, wet, or windy it might be!

Date:

Astronomy

Jan. 20, 2014 Rise Set
Actual Time 7:56 AM EST 5:33 PM EST
Civil Twilight 7:25 AM EST 6:04 PM EST
Nautical Twilight 6:51 AM EST 6:38 PM EST
Astronomical Twilight 6:18 AM EST 7:11 PM EST
Moon 10:12 PM EST (1/20) 9:50 AM EST (1/20)
Length of Visible Light 10h 38m
Length of Day
9h 37m
Waning Gibbous, 83% of the Moon is Illuminated
Jan 20
Waning Gibbous
Jan 24
Last Quarter
Jan 30
New
Feb 6
First Quarter
Feb 14
Full

Hourly Weather History & Observations

Time (EST) Temp. Windchill Dew Point Humidity Pressure Visibility Wind Dir Wind Speed Gust Speed Precip Events Conditions
12:13 AM 30.2 °F 19.8 °F 24.8 °F 80% 29.52 in 10.0 mi SW 13.8 mph 20.7 mph N/A   Overcast
12:34 AM 32.0 °F 21.2 °F 24.8 °F 75% 29.51 in 10.0 mi SW 16.1 mph 21.9 mph N/A   Overcast
12:54 AM 32.0 °F 21.2 °F 24.8 °F 75% 29.51 in 10.0 mi SW 16.1 mph 23.0 mph N/A   Overcast
1:14 AM 32.0 °F 21.2 °F 24.8 °F 75% 29.50 in 10.0 mi SW 16.1 mph 23.0 mph N/A   Overcast
1:34 AM 33.8 °F 23.2 °F 24.8 °F 70% 29.50 in 10.0 mi WSW 17.3 mph 21.9 mph N/A   Overcast
1:54 AM 33.8 °F 23.5 °F 24.8 °F 70% 29.50 in 10.0 mi SW 16.1 mph 21.9 mph N/A   Overcast
2:14 AM 33.8 °F 23.5 °F 24.8 °F 70% 29.50 in 10.0 mi WSW 16.1 mph 19.6 mph N/A   Overcast
2:34 AM 33.8 °F 24.3 °F 24.8 °F 70% 29.51 in 10.0 mi WSW 13.8 mph 18.4 mph N/A   Overcast
2:54 AM 33.8 °F 24.3 °F 24.8 °F 70% 29.52 in 10.0 mi WSW 13.8 mph - N/A   Overcast
3:15 AM 33.8 °F 24.8 °F 24.8 °F 70% 29.52 in 10.0 mi WSW 12.7 mph - N/A   Overcast
3:35 AM 33.8 °F - 26.6 °F 75% 29.53 in 10.0 mi Calm Calm - N/A   Overcast
3:55 AM 33.8 °F 26.4 °F 26.6 °F 75% 29.54 in 10.0 mi WSW 9.2 mph - N/A   Overcast
4:15 AM 33.8 °F 27.0 °F 26.6 °F 75% 29.55 in 10.0 mi WSW 8.1 mph - N/A   Overcast
4:35 AM 33.8 °F 27.7 °F 26.6 °F 75% 29.55 in 10.0 mi WSW 6.9 mph - N/A   Overcast
4:55 AM 33.8 °F - 26.6 °F 75% 29.57 in 10.0 mi Calm Calm - N/A   Overcast
5:15 AM 33.8 °F - 26.6 °F 75% 29.58 in 10.0 mi Calm Calm - N/A   Overcast
5:35 AM 32.0 °F - 28.4 °F 87% 29.59 in 10.0 mi Calm Calm - N/A   Overcast
5:55 AM 32.0 °F - 28.4 °F 87% 29.61 in 10.0 mi Calm Calm - N/A   Overcast
6:16 AM 32.0 °F - 28.4 °F 87% 29.62 in 10.0 mi Calm Calm - N/A   Overcast
6:36 AM 32.0 °F - 28.4 °F 87% 29.63 in 7.0 mi Calm Calm - N/A   Overcast
6:56 AM 32.0 °F - 28.4 °F 87% 29.64 in 7.0 mi Calm Calm - N/A   Overcast
7:16 AM 32.0 °F 25.6 °F 28.4 °F 87% 29.65 in 7.0 mi NW 6.9 mph - N/A   Overcast
7:36 AM 30.2 °F 23.4 °F 28.4 °F 93% 29.66 in 5.0 mi NW 6.9 mph - N/A   Overcast
7:56 AM 30.2 °F 24.3 °F 28.4 °F 93% 29.67 in 5.0 mi NW 5.8 mph - N/A   Overcast
8:16 AM 30.2 °F 23.4 °F 28.4 °F 93% 29.69 in 4.0 mi NW 6.9 mph - N/A   Overcast
8:36 AM 28.4 °F 19.1 °F 26.6 °F 93% 29.71 in 10.0 mi NNW 10.4 mph - N/A   Overcast
8:56 AM 28.4 °F 18.5 °F 24.8 °F 86% 29.73 in 10.0 mi NNW 11.5 mph - N/A   Overcast
9:16 AM 26.6 °F 16.8 °F 23.0 °F 86% 29.75 in 10.0 mi NNW 10.4 mph - N/A   Overcast
9:36 AM 26.6 °F 18.2 °F 23.0 °F 86% 29.76 in 10.0 mi NNW 8.1 mph - N/A   Overcast
9:56 AM 26.6 °F 18.2 °F 21.2 °F 80% 29.77 in 10.0 mi NNW 8.1 mph - N/A   Overcast
10:16 AM 24.8 °F 16.1 °F 21.2 °F 86% 29.79 in 10.0 mi NW 8.1 mph - N/A   Overcast
10:37 AM 26.6 °F 16.2 °F 19.4 °F 74% 29.81 in 10.0 mi NW 11.5 mph 16.1 mph N/A   Overcast
10:57 AM 24.8 °F 19.1 °F 19.4 °F 80% 29.82 in 10.0 mi NNW 4.6 mph - N/A   Overcast
11:12 AM 26.6 °F 16.2 °F 19.4 °F 74% 29.83 in 10.0 mi NW 11.5 mph 18.4 mph N/A   Overcast
11:32 AM 26.6 °F 16.8 °F 19.4 °F 74% 29.83 in 10.0 mi NNW 10.4 mph - N/A   Overcast
11:52 AM 26.6 °F 16.8 °F 19.4 °F 74% 29.82 in 10.0 mi NNW 10.4 mph - N/A   Overcast
12:12 PM 26.6 °F 15.7 °F 19.4 °F 74% 29.82 in 7.0 mi NNW 12.7 mph - N/A   Overcast
12:32 PM 26.6 °F 18.2 °F 17.6 °F 69% 29.82 in 10.0 mi NW 8.1 mph - N/A   Overcast
12:52 PM 26.6 °F - 17.6 °F 69% 29.82 in 10.0 mi Calm Calm - N/A   Overcast
1:13 PM 26.6 °F 20.0 °F 17.6 °F 69% 29.83 in 10.0 mi WNW 5.8 mph - N/A   Overcast
1:33 PM 26.6 °F 17.5 °F 17.6 °F 69% 29.83 in 10.0 mi WNW 9.2 mph - N/A   Overcast
1:53 PM 26.6 °F 15.7 °F 17.6 °F 69% 29.84 in 10.0 mi WNW 12.7 mph - N/A   Overcast
2:13 PM 26.6 °F 21.2 °F 17.6 °F 69% 29.85 in 10.0 mi WNW 4.6 mph - N/A   Overcast
2:33 PM 26.6 °F - 17.6 °F 69% 29.84 in 10.0 mi Calm Calm - N/A   Overcast
2:53 PM 26.6 °F - 17.6 °F 69% 29.84 in 10.0 mi Calm Calm - N/A   Overcast
3:13 PM 26.6 °F - 17.6 °F 69% 29.85 in 10.0 mi Calm Calm - N/A   Overcast
3:33 PM 26.6 °F - 17.6 °F 69% 29.86 in 10.0 mi Calm Calm - N/A   Overcast
3:53 PM 26.6 °F - 17.6 °F 69% 29.86 in 10.0 mi Calm Calm - N/A   Overcast
4:13 PM 26.6 °F - 17.6 °F 69% 29.87 in 10.0 mi Calm Calm - N/A   Overcast
4:34 PM 26.6 °F - 17.6 °F 69% 29.88 in 10.0 mi Calm Calm - N/A   Overcast
4:54 PM 26.6 °F - 17.6 °F 69% 29.89 in 10.0 mi Calm Calm - N/A   Overcast
5:14 PM 26.6 °F - 15.8 °F 64% 29.89 in 10.0 mi Calm Calm - N/A   Overcast
5:34 PM 26.6 °F - 15.8 °F 64% 29.90 in 10.0 mi Calm Calm - N/A   Overcast
5:54 PM 26.6 °F - 15.8 °F 64% 29.90 in 10.0 mi Calm Calm - N/A   Overcast
6:14 PM 24.8 °F - 15.8 °F 69% 29.92 in 10.0 mi Calm Calm - N/A Snow Light Snow
6:34 PM 24.8 °F - 17.6 °F 74% 29.93 in 10.0 mi Calm Calm - N/A   Overcast
6:54 PM 24.8 °F - 17.6 °F 74% 29.94 in 4.0 mi Calm Calm - N/A Snow Light Snow
7:14 PM 19.4 °F 12.8 °F 15.8 °F 86% 29.96 in 5.0 mi ENE 4.6 mph - N/A Snow Light Snow
7:34 PM 19.4 °F 8.6 °F 15.8 °F 86% 29.97 in 1.5 mi ENE 9.2 mph - N/A Snow Light Snow
7:54 PM 17.6 °F 8.2 °F 14.0 °F 86% 29.98 in 2.5 mi ENE 6.9 mph 16.1 mph N/A Snow Light Snow
8:15 PM 17.6 °F 9.3 °F 14.0 °F 86% 29.97 in 3.0 mi ENE 5.8 mph 16.1 mph N/A Snow Light Snow
8:35 PM 17.6 °F - 14.0 °F 86% 29.98 in 2.5 mi Calm Calm - N/A Snow Light Snow
8:55 PM 17.6 °F 6.4 °F 12.2 °F 79% 29.98 in 1.0 mi ENE 9.2 mph - N/A Snow Light Snow
9:15 PM 15.8 °F 1.4 °F 12.2 °F 86% 29.99 in 3.0 mi ENE 13.8 mph 19.6 mph N/A Snow Light Snow
9:35 PM 15.8 °F 8.6 °F 12.2 °F 86% 30.00 in 4.0 mi ENE 4.6 mph - N/A Snow Light Snow
9:55 PM 15.8 °F 2.7 °F 12.2 °F 86% 30.00 in 3.0 mi ENE 11.5 mph 18.4 mph N/A Snow Light Snow
10:15 PM 15.8 °F 5.1 °F 10.4 °F 79% 30.01 in 4.0 mi ENE 8.1 mph - N/A Snow Light Snow
10:36 PM 14.0 °F 2.0 °F 10.4 °F 86% 30.00 in 2.0 mi NE 9.2 mph 17.3 mph N/A Snow Light Snow
10:56 PM 14.0 °F 0.5 °F 10.4 °F 86% 30.01 in 2.5 mi NNE 11.5 mph - N/A Snow Light Snow
11:16 PM 14.0 °F - 10.4 °F 86% 30.01 in 5.0 mi Calm Calm - N/A Snow Light Snow
11:36 PM 12.2 °F 0.7 °F 8.6 °F 85% 30.01 in 7.0 mi NNE 8.1 mph - N/A Snow Light Snow
11:56 PM 12.2 °F - 8.6 °F 85% 30.01 in 7.0 mi Calm Calm - N/A Snow Light Snow